Weather History for Marathon, FL

Change the Weather History Date:

Friday, March 28, 2014

  Actual Average Record
Temperature  
Mean Temperature 79 °F 75 °F  
Max Temperature 84 °F 81 °F 87 °F (2011)
Min Temperature 74 °F 70 °F 60 °F (2013)
Degree Days  
Heating Degree Days 0 0  
Month to date heating degree days 0 0  
Since 1 July heating degree days 35 75  
Cooling Degree Days 14 10  
Month to date cooling degree days 289 250  
Year to date cooling degree days 795 632  
Growing Degree Days 28 (Base 50)    
Moisture  
Dew Point 69 °F    
Average Humidity 74    
Maximum Humidity 82    
Minimum Humidity 65    
Precipitation  
Precipitation 0.00 in 0.09 in 0.43 in (2011)
Month to date precipitation 1.44 2.11  
Year to date precipitation 5.13 5.93  
Snow  
Snow 0.00 in - - ()
Month to date snowfall 0.0  
Since 1 July snowfall 0.0  
Snow Depth 0.00 in    
Sea Level Pressure  
Sea Level Pressure 30.09 in    
Wind  
Wind Speed 10 mph (ESE)    
Max Wind Speed 18 mph    
Max Gust Speed 28 mph    
Visibility 10 miles    
Events      
T = Trace of Precipitation, MM = Missing Value Source: NWS Daily Summary

Daily Weather History Graph

Daily Weather History Graph

Search for Another Location

Airport:

Trip Planner

Search our weather history database for the weather conditions in past years. The results will help you decide how hot, cold, wet, or windy it might be!

Date:

Astronomy

Mar. 28, 2014 Rise Set
Actual Time 7:19 AM EDT 7:38 PM EDT
Civil Twilight 6:57 AM EDT 8:01 PM EDT
Nautical Twilight 6:30 AM EDT 8:28 PM EDT
Astronomical Twilight 6:03 AM EDT 8:55 PM EDT
Moon 5:35 AM EDT (3/28) 5:44 PM EDT (3/28)
Length of Visible Light 13h 04m
Length of Day
12h 18m
Waning Crescent, 6% of the Moon is Illuminated
Mar 28
Waning Crescent
Mar 30
New
Apr 7
First Quarter
Apr 15
Full
Apr 22
Last Quarter

Hourly Weather History & Observations

Time (EDT) Temp. Heat Index Dew Point Humidity Pressure Visibility Wind Dir Wind Speed Gust Speed Precip Events Conditions
12:53 AM 75.0 °F - 64.0 °F 69% 30.16 in 10.0 mi ESE 12.7 mph 21.9 mph N/A   Clear
1:53 AM 73.9 °F - 64.0 °F 71% 30.14 in 10.0 mi ESE 15.0 mph 25.3 mph N/A   Clear
2:53 AM 73.9 °F - 64.9 °F 73% 30.12 in 10.0 mi ESE 12.7 mph 20.7 mph N/A   Clear
3:53 AM 73.9 °F - 64.9 °F 73% 30.11 in 10.0 mi ESE 9.2 mph 20.7 mph N/A   Overcast
4:53 AM 73.9 °F - 64.9 °F 73% 30.09 in 10.0 mi SE 12.7 mph 21.9 mph N/A   Partly Cloudy
5:53 AM 75.0 °F - 66.0 °F 73% 30.09 in 10.0 mi SE 11.5 mph - N/A   Partly Cloudy
6:53 AM 75.0 °F - 66.0 °F 73% 30.09 in 10.0 mi ESE 10.4 mph 19.6 mph N/A   Clear
7:53 AM 75.0 °F - 66.9 °F 76% 30.10 in 9.0 mi ESE 10.4 mph 18.4 mph N/A   Clear
8:53 AM 77.0 °F - 68.0 °F 74% 30.12 in 9.0 mi ESE 10.4 mph 18.4 mph N/A   Clear
9:53 AM 78.1 °F - 69.1 °F 74% 30.13 in 9.0 mi SE 10.4 mph - N/A   Scattered Clouds
10:53 AM 80.1 °F 82.9 °F 69.1 °F 69% 30.13 in 10.0 mi SE 9.2 mph 17.3 mph N/A   Partly Cloudy
11:53 AM 82.0 °F 85.9 °F 70.0 °F 67% 30.13 in 10.0 mi ESE 8.1 mph - N/A   Partly Cloudy
12:53 PM 82.9 °F 87.0 °F 70.0 °F 65% 30.12 in 10.0 mi SE 8.1 mph 17.3 mph N/A   Clear
1:53 PM 82.9 °F 87.0 °F 70.0 °F 65% 30.09 in 9.0 mi ESE 12.7 mph 19.6 mph N/A   Scattered Clouds
2:53 PM 81.0 °F 84.4 °F 70.0 °F 69% 30.06 in 10.0 mi ESE 11.5 mph 19.6 mph N/A   Clear
3:53 PM 82.9 °F 87.5 °F 71.1 °F 67% 30.05 in 10.0 mi ESE 8.1 mph 18.4 mph N/A   Partly Cloudy
4:53 PM 81.0 °F 84.9 °F 71.1 °F 72% 30.03 in 9.0 mi ESE 10.4 mph 17.3 mph N/A   Partly Cloudy
5:53 PM 79.0 °F - 71.1 °F 77% 30.03 in 9.0 mi ESE 9.2 mph - N/A   Clear
6:53 PM 79.0 °F - 71.1 °F 77% 30.04 in 9.0 mi ESE 8.1 mph 17.3 mph N/A   Partly Cloudy
7:53 PM 78.1 °F - 71.1 °F 79% 30.06 in 9.0 mi East 10.4 mph - N/A   Partly Cloudy
8:53 PM 77.0 °F - 71.1 °F 82% 30.05 in 10.0 mi East 8.1 mph - N/A   Clear
9:53 PM 77.0 °F - 72.0 °F 84% 30.06 in 9.0 mi ESE 9.2 mph - N/A   Clear
10:29 PM 77.0 °F - 72.0 °F 84% 30.07 in 9.0 mi ESE 9.2 mph 17.3 mph N/A   Mostly Cloudy
10:53 PM 77.0 °F - 72.0 °F 84% 30.07 in 9.0 mi ESE 9.2 mph - N/A   Scattered Clouds
11:53 PM 77.0 °F - 72.0 °F 84% 30.09 in 9.0 mi Variable 6.9 mph - N/A   Mostly Cloudy